Location: Taukkyan
(23.1052°N, 94.0030°E)
Time: 11:55:09
(UTC+00:00)

Cosmos 1802 Rocket - Pass Details

Date: 06 July 2020
Orbit: 954 x 1012 km, 82.9° (Epoch: 14 August)

Event Time Altitude Azimuth Distance (km) Brightness Sun altitude
Exits shadow 20:04:31 58° 360° (N) 1,142 4.4 -33.7°
Drops below altitude 10° 20:09:31 10° 4° (N) 2,769 7.0 -32.9°
Sets 20:12:04 0° 5° (N) 3,727 7.8 -32.6°
